SCP
0 0 0 0 0 0 0 0 0 0 0 0 0 0 0 0 0 0 0 0 0 0 0 0 0 0 0 0 0 0 0 0 0 0 0 0 0 0 0 0 0 0 0 0
0 0 0 0 0 0 0 0 0 0 0 0 0 0 0 0 0 0 0 0 0 0 0 0 0 0 0 0 0 0 0 0 0 0 0 0 0 0 0 0 0 0 0 0
0 0 0 0 0 0 0 0 0 0 0 0 0 0 0 0 0 0 0 0 0 0 0 0 0 0 0 0 0 0 0 0 0 0 0 0 0 0 0 0 0 0 0 0
0 0 0 0 0 0 0 0 0 0 0 0 0 0 0 0 0 0 0 0 0 0 0 0 0 0 0 0 0 0 0 0 0 0 0 0 0 0 0 0 0 0 0 0
0 0 0 0 0 0 0 0 0 0 0 0 0 0 0 0 0 0 0 0 0 0 0 0 0 0 0 0 0 0 0 0 0 0 0 0 0 0 0 0 0 0 0 0
0 0 0 0 0 0 0 -0 0 0 0 0 0 0 0 0 0 0 0 0 0 0 0 0 0 0 0 0 0 0 0 0 0 0 0 0 0 0 0 0 0 0 0 0
0 0 0 0 0 0 0 0 0 0 0 0 0 0 0 0 0 0 0 0 0 0 0 0 0 0 0 0 0 0 0 0 0 0 0 0 0 0 0 0 0 0 0 0
0 0 0 0 0 0 0 0 0 0 0 0 0 0 0 0 0 0 0 0 0 0 0 0 0 0 0 0 0 0 0 0 0 0 0 0 0 0 0 0 0 0 0 0
0 0 0 0 0 0 -0 -0 -0 0 0 0 0 0 0 0 0 0 0 0 0 0 0 0 0 0 0 0 0 0 0 0 0 0 0 0 0 0 0 0 0 0 0 0
0 0 0 0 0 0 0 0 0 0 0 0 0 0 0 0 0 0 0 0 0 0 0 0 0 0 0 0 0 0 0 0 0 0 0 0 0 0 0 0 0 0 0 0
0 0 0 0 0 0 0 0 0 0 0 0 0 0 0 0 0 0 0 0 0 0 0 0 0 0 0 0 0 0 0 0 0 0 0 0 0 0 0 0 0 0 0 0
0 0 0 0 0 0 0 0 0 0 0 0 0 0 0 0 0 0 0 0 0 0 0 0 0 0 0 0 0 0 0 0 0 0 0 0 0 0 0 0 0 0 0 0
0 0 0 0 0 0 0 0 0 0 0 0 0 0 0 0 0 0 0 0 0 0 0 0 0 0 0 0 0 0 0 0 0 0 0 0 0 0 0 0 0 0 0 -0
0 0 0 0 0 0 0 0 0 0 0 0 0 0 0 0 0 0 0 0 0 0 0 0 0 0 0 0 0 0 0 0 0 0 0 0 0 0 0 0 0 0 0 -0
0 0 0 0 0 0 0 0 0 0 0 0 0 0 0 0 0 0 0 0 0 0 0 0 0 0 0 0 0 0 0 0 0 0 0 0 0 0 0 0 0 0 0 0
0 0 0 0 0 0 0 0 0 0 0 0 0 0 0 0 0 0 0 0 0 0 0 0 0 0 0 0 0 0 0 0 0 0 -0 0 -0 0 0 0 0 0 0 0
0 0 0 0 0 0 0 0 0 0 0 0 0 0 0 0 0 0 0 0 0 0 0 0 0 0 0 0 0 0 0 0 0 0 0 0 0 0 0 0 0 0 0 0
0 0 0 0 0 0 0 0 0 0 0 0 0 0 0 0 0 0 0 0 0 0 0 0 0 0 0 0 0 0 0 0 0 0 0 0 0 0 0 0 0 0 0 0
0 0 0 0 0 0 0 0 0 0 0 0 0 0 0 0 0 0 0 0 0 0 0 0 0 0 0 0 0 0 0 0 0 0 0 0 0 0 0 0 0 0 0 0
0 0 0 0 0 0 0 0 0 0 0 0 0 0 0 0 0 0 0 0 0 0 0 0 0 0 0 0 0 0 0 0 -0 0 0 0 0 0 0 0 0 0 0 0
-0 0 0 0 0 0 0 0 0 0 0 0 0 0 0 0 0 0 0 0 0 0 0 0 0 0 0 0 0 0 0 -0 -0 -0 0 0 0 0 0 0 0 0 0 0
0 -0 -0 -0 -0 -0 0 0 0 0 0 0 0 0 0 0 0 0 0 0 0 0 0 0 0 0 0 0 0 0 0 0 -0 -0 -0 -0 0 0 0 0 0 0 0 0
-0 0 -0 -0 0 0 0 0 0 -0 -0 -0 0 0 0 0 0 0 0 -0 0 0 0 0 0 0 0 0 0 0 0 0 -0 0 -0 -0 0 0 0 0 0 0 0 0
-0 -0 -0 -0 0 -0 -0 0 0 -0 -0 0 0 0 0 0 0 0 0 0 0 0 0 0 0 0 0 0 0 0 0 0 0 -0 -0 -0 -0 -0 0 0 0 0 0 0
0 0 -0 0 0 0 0 0 0 0 0 0 0 0 0 0 0 0 0 0 0 0 0 0 0 0 0 0 0 0 0 0 0 -0 -0 -0 -0 0 0 0 0 0 0 0
0 0 0 -0 -0 0 -0 -0 0 0 0 0 0 0 0 0 0 0 0 0 0 0 0 0 0 0 0 0 -0 0 0 0 -0 -0 -0 -0 -0 0 0 -0 0 0 0 0
0 0 0 0 -0 -0 -0 0 0 0 0 0 0 0 0 0 0 0 0 0 0 0 0 0 0 0 0 0 0 0 0 -0 -0 -0 -0 -0 -0 0 0 0 0 0 0 0
Wind_Speed_500mb
11 10 7 9 11 12 10 12 12 12 14 19 23 22 53 61 59 69 60 64 82 87 85 84 83 74 63 58 50 46 47 43 46 40 26 14 14 19 15 20 25 30 36 36
3 11 15 21 16 14 15 11 11 14 16 21 36 27 26 53 40 53 60 65 72 76 74 75 70 69 66 56 46 41 34 40 34 23 18 13 9 9 20 23 28 31 27 24
10 11 14 17 16 20 15 14 14 16 17 11 10 19 19 37 63 72 75 73 77 80 76 73 68 67 62 50 39 38 37 35 31 17 6 6 5 13 22 33 23 19 20 22
9 3 19 8 15 20 29 32 10 7 13 20 18 12 28 52 73 75 76 77 76 73 68 62 59 53 46 41 41 35 32 30 21 14 11 6 8 20 28 22 16 17 19 21
8 12 20 4 5 5 7 25 6 13 14 19 29 30 23 52 61 78 77 75 72 66 62 61 59 54 51 46 39 35 31 28 21 14 8 5 17 24 16 10 10 13 17 21
7 9 22 8 19 41 8 40 9 17 17 21 30 9 9 58 71 77 76 76 75 69 66 61 58 56 48 43 41 39 33 25 19 11 5 16 14 5 11 14 17 16 13 21
11 12 12 6 18 34 19 21 22 19 12 21 11 21 51 73 75 84 86 84 79 75 72 65 59 50 47 50 45 36 31 24 12 1 12 7 10 12 16 15 15 19 17 18
2 8 16 7 4 9 1 7 12 18 21 25 29 29 78 87 87 89 91 90 80 75 68 64 55 46 50 48 40 33 27 17 6 3 6 11 14 21 21 27 28 29 22 15
16 11 8 15 8 10 7 10 8 9 17 14 28 47 79 94 94 96 96 89 77 69 65 51 40 31 40 37 33 26 22 14 7 10 6 21 17 15 11 15 19 24 30 21
2 3 0 10 17 12 13 9 3 4 6 21 27 43 60 75 96 99 91 84 71 59 49 41 35 30 27 31 27 22 17 12 18 12 9 21 15 9 6 10 13 16 23 25
8 6 1 12 17 7 6 10 6 10 12 23 39 54 60 51 70 85 83 72 61 57 49 41 39 37 32 29 25 19 16 19 24 18 12 18 14 4 3 8 13 13 16 22
10 10 13 29 32 22 9 9 10 10 19 31 43 62 74 73 74 82 74 64 62 54 43 41 43 37 34 28 22 15 26 28 28 24 16 9 7 5 4 3 8 14 9 13
29 48 27 23 28 28 25 19 19 22 33 37 58 56 66 69 62 54 60 67 58 49 44 46 44 38 34 27 23 19 36 34 27 26 12 15 7 2 7 3 13 17 7 3
43 41 50 45 29 30 32 22 24 29 49 54 66 71 84 91 73 68 67 56 49 55 52 48 44 37 31 24 15 35 38 32 26 24 23 12 10 12 15 17 18 23 7 10
82 73 83 73 60 44 40 38 36 47 45 52 65 81 92 86 75 83 70 61 62 56 51 53 46 35 24 22 36 39 36 30 26 26 19 12 11 13 11 4 8 4 6 12
70 75 80 74 67 54 55 51 45 54 56 64 73 79 85 77 78 80 75 68 69 62 60 50 37 27 19 37 37 38 31 23 16 11 20 7 11 7 8 12 5 6 10 7
65 61 67 65 55 52 62 56 42 50 59 68 76 81 80 75 82 80 72 74 62 60 51 40 33 28 33 33 30 36 28 17 11 22 11 7 13 8 13 9 10 8 13 6
83 80 73 67 60 50 40 32 32 55 66 80 78 76 81 92 94 85 77 67 56 46 39 35 32 29 39 33 27 33 22 20 20 18 9 10 12 8 6 10 13 15 17 11
85 82 72 54 36 34 37 29 34 61 70 81 88 93 93 89 86 81 71 61 54 48 45 38 35 38 41 37 32 34 31 27 21 22 19 19 22 19 13 19 16 15 19 18
59 61 65 55 39 33 36 32 55 75 77 80 84 91 89 84 76 64 60 54 40 38 43 42 43 41 37 32 36 33 42 37 31 20 12 8 13 16 15 18 17 17 19 24
23 32 45 45 39 35 30 36 78 70 77 86 94 92 80 67 58 61 53 41 37 42 37 37 44 40 33 29 29 31 30 34 37 24 22 14 16 20 19 17 19 21 22 27
18 35 24 19 17 20 50 56 66 76 81 79 75 70 71 57 66 54 39 31 44 42 34 30 29 25 19 23 32 28 24 32 33 25 24 21 19 20 22 24 27 27 29 32
16 16 21 33 41 50 58 69 74 78 81 79 59 51 70 61 56 54 48 33 40 36 32 28 25 23 26 26 30 29 34 30 29 23 25 23 25 27 30 33 34 30 30 32
39 48 56 58 59 62 64 64 70 57 35 44 50 55 53 56 57 47 30 32 34 24 28 24 25 20 19 24 32 31 36 33 34 33 34 32 30 33 37 31 33 37 41 45
57 60 61 63 66 69 35 34 32 33 37 38 45 46 41 39 40 41 30 22 32 23 22 26 20 20 24 23 22 26 31 36 38 38 44 39 34 30 33 38 37 37 37 33
35 33 28 26 37 37 37 45 47 38 42 44 40 39 38 38 33 32 27 24 25 24 23 25 23 21 25 26 29 31 33 34 34 45 39 32 33 37 43 44 43 43 44 38
31 38 40 37 37 42 44 34 36 41 42 41 39 37 34 35 29 30 29 24 21 23 22 30 31 26 27 21 21 23 27 28 31 35 34 36 38 40 40 41 37 35 39 42
Wind_Direction_500mb
212 236 263 227 212 233 196 208 174 250 217 239 231 217 216 211 209 202 195 191 197 198 197 197 194 197 193 188 193 200 206 205 205 198 203 217 269 320 342 338 333 327 326 332
261 257 256 264 254 222 233 245 242 238 256 247 269 275 220 228 181 171 182 184 187 190 187 188 192 193 189 191 190 202 208 204 191 198 227 269 316 325 320 322 326 325 327 334
255 260 295 280 219 236 250 227 201 249 240 209 225 170 219 166 170 166 169 171 176 177 176 175 178 184 187 187 190 177 180 187 202 202 218 210 275 310 321 332 343 344 345 342
232 214 256 252 207 216 238 257 222 240 216 209 205 219 208 192 169 159 164 165 166 163 162 166 172 179 183 179 168 172 175 174 174 185 201 209 306 320 331 331 342 350 4 0
187 215 264 303 183 123 289 280 223 233 231 197 150 108 111 168 181 169 166 162 159 163 163 162 163 163 163 160 166 170 171 173 177 193 209 329 325 327 328 10 17 17 8 355
141 207 250 162 225 249 193 269 247 229 208 181 156 138 211 169 167 163 164 162 160 161 158 155 157 162 163 167 170 172 175 176 175 185 289 321 333 63 63 30 352 343 342 339
223 250 256 228 199 207 205 256 333 297 193 182 210 213 184 171 167 169 167 163 161 160 160 161 165 167 166 171 177 174 169 163 172 288 328 344 120 90 49 10 36 28 358 336
194 234 299 182 102 211 124 354 347 325 341 280 233 196 172 174 170 167 162 160 162 157 152 156 162 166 161 166 166 166 162 169 195 0 23 137 115 94 76 78 67 50 37 22
187 216 273 27 51 338 28 10 359 321 305 231 207 184 179 172 171 167 162 160 160 157 155 158 169 183 169 170 175 184 183 203 199 149 128 150 128 127 78 48 52 44 35 35
125 224 331 24 84 66 49 113 123 304 239 180 168 160 159 163 163 163 163 162 164 164 166 170 180 178 189 180 186 192 195 198 174 152 144 153 152 133 63 9 356 9 23 28
262 289 4 27 1 347 7 339 205 265 217 182 173 166 156 161 167 168 169 169 175 178 175 171 175 181 191 196 197 211 215 187 174 164 150 161 160 138 7 346 354 349 353 29
233 199 281 279 294 279 247 294 282 273 231 189 197 183 172 190 194 177 173 175 174 176 173 171 177 182 187 194 195 190 182 185 177 173 167 161 185 243 310 269 311 322 316 8
257 274 273 291 277 248 256 241 264 261 225 211 189 192 190 178 168 177 177 183 180 177 173 172 177 181 183 187 192 191 178 180 181 182 197 176 194 193 94 14 345 327 291 272
261 266 280 276 250 255 257 251 263 235 221 220 211 196 195 181 178 196 188 185 183 175 175 180 181 180 183 191 206 174 176 178 186 187 176 197 253 275 273 283 296 310 317 1
258 256 261 267 270 254 248 252 244 211 203 202 204 201 193 187 186 181 180 184 179 177 178 180 178 178 185 195 171 167 177 189 179 181 200 233 278 272 266 248 338 278 329 353
261 256 256 255 258 254 243 243 233 216 217 213 200 194 195 186 188 181 175 183 178 181 181 183 187 193 191 170 162 163 159 163 185 214 187 222 216 238 285 299 291 333 323 333
245 243 248 252 254 254 248 242 241 225 229 217 207 197 192 190 180 175 180 182 189 187 189 192 180 179 175 160 162 159 157 164 164 175 185 212 209 257 311 214 270 263 325 321
248 251 254 254 258 251 238 248 259 232 216 203 194 190 186 180 180 181 179 181 183 185 188 182 183 181 178 175 171 173 181 186 173 173 190 219 238 263 258 239 265 285 333 299
250 241 243 240 237 253 242 246 242 223 197 189 184 181 181 183 180 176 175 179 181 182 181 186 183 183 186 189 190 194 196 196 199 196 222 236 245 254 277 255 275 281 294 282
259 241 228 236 238 243 248 243 216 191 184 181 179 176 177 175 171 173 184 186 194 198 185 186 191 188 194 199 205 210 208 208 208 214 225 221 230 260 272 264 277 278 282 284
224 215 212 216 219 239 244 196 182 183 181 183 182 179 177 178 178 188 183 181 185 187 189 186 191 197 208 215 218 215 216 206 206 212 218 241 274 253 259 267 278 270 285 297
194 194 195 209 224 207 184 182 186 181 178 176 174 172 171 181 182 182 188 180 176 173 178 188 188 190 202 224 222 211 202 188 192 214 229 239 247 262 267 272 283 286 284 289
216 206 167 171 173 163 163 168 177 178 176 164 172 188 184 174 180 183 187 181 179 176 185 187 189 204 213 212 186 184 185 198 214 227 235 252 245 259 266 274 282 278 277 281
118 130 140 150 155 147 134 142 150 153 172 176 171 172 181 181 187 190 180 176 176 191 203 204 204 218 213 212 211 216 215 222 232 233 234 241 250 263 268 272 280 284 281 282
115 126 131 139 143 144 160 158 165 151 147 157 169 175 182 186 183 181 184 187 188 188 192 209 225 219 214 222 226 231 239 246 250 237 228 237 258 290 267 267 274 278 281 281
115 124 133 135 140 145 144 146 146 158 163 163 171 176 178 183 187 188 191 201 200 209 233 223 224 231 228 229 235 244 250 251 239 220 229 248 270 287 285 275 275 276 282 283
135 135 137 138 141 150 158 162 159 164 165 161 168 177 186 183 184 189 194 200 202 220 245 238 236 230 208 227 241 259 259 242 226 221 239 260 279 292 284 269 265 270 266 274
Wind_Speed_850mb
11 10 7 9 11 12 10 12 12 12 14 19 23 22 53 61 59 69 60 64 82 87 85 84 83 74 63 58 50 46 47 43 46 40 26 14 14 19 15 20 25 30 36 36
3 11 15 21 16 14 15 11 11 14 16 21 36 27 26 53 40 53 60 65 72 76 74 75 70 69 66 56 46 41 34 40 34 23 18 13 9 9 20 23 28 31 27 24
10 11 14 17 16 20 15 14 14 16 17 11 10 19 19 37 63 72 75 73 77 80 76 73 68 67 62 50 39 38 37 35 31 17 6 6 5 13 22 33 23 19 20 22
9 3 19 8 15 20 29 32 10 7 13 20 18 12 28 52 73 75 76 77 76 73 68 62 59 53 46 41 41 35 32 30 21 14 11 6 8 20 28 22 16 17 19 21
8 12 20 4 5 5 7 25 6 13 14 19 29 30 23 52 61 78 77 75 72 66 62 61 59 54 51 46 39 35 31 28 21 14 8 5 17 24 16 10 10 13 17 21
7 9 22 8 19 41 8 40 9 17 17 21 30 9 9 58 71 77 76 76 75 69 66 61 58 56 48 43 41 39 33 25 19 11 5 16 14 5 11 14 17 16 13 21
11 12 12 6 18 34 19 21 22 19 12 21 11 21 51 73 75 84 86 84 79 75 72 65 59 50 47 50 45 36 31 24 12 1 12 7 10 12 16 15 15 19 17 18
2 8 16 7 4 9 1 7 12 18 21 25 29 29 78 87 87 89 91 90 80 75 68 64 55 46 50 48 40 33 27 17 6 3 6 11 14 21 21 27 28 29 22 15
16 11 8 15 8 10 7 10 8 9 17 14 28 47 79 94 94 96 96 89 77 69 65 51 40 31 40 37 33 26 22 14 7 10 6 21 17 15 11 15 19 24 30 21
2 3 0 10 17 12 13 9 3 4 6 21 27 43 60 75 96 99 91 84 71 59 49 41 35 30 27 31 27 22 17 12 18 12 9 21 15 9 6 10 13 16 23 25
8 6 1 12 17 7 6 10 6 10 12 23 39 54 60 51 70 85 83 72 61 57 49 41 39 37 32 29 25 19 16 19 24 18 12 18 14 4 3 8 13 13 16 22
10 10 13 29 32 22 9 9 10 10 19 31 43 62 74 73 74 82 74 64 62 54 43 41 43 37 34 28 22 15 26 28 28 24 16 9 7 5 4 3 8 14 9 13
29 48 27 23 28 28 25 19 19 22 33 37 58 56 66 69 62 54 60 67 58 49 44 46 44 38 34 27 23 19 36 34 27 26 12 15 7 2 7 3 13 17 7 3
43 41 50 45 29 30 32 22 24 29 49 54 66 71 84 91 73 68 67 56 49 55 52 48 44 37 31 24 15 35 38 32 26 24 23 12 10 12 15 17 18 23 7 10
82 73 83 73 60 44 40 38 36 47 45 52 65 81 92 86 75 83 70 61 62 56 51 53 46 35 24 22 36 39 36 30 26 26 19 12 11 13 11 4 8 4 6 12
70 75 80 74 67 54 55 51 45 54 56 64 73 79 85 77 78 80 75 68 69 62 60 50 37 27 19 37 37 38 31 23 16 11 20 7 11 7 8 12 5 6 10 7
65 61 67 65 55 52 62 56 42 50 59 68 76 81 80 75 82 80 72 74 62 60 51 40 33 28 33 33 30 36 28 17 11 22 11 7 13 8 13 9 10 8 13 6
83 80 73 67 60 50 40 32 32 55 66 80 78 76 81 92 94 85 77 67 56 46 39 35 32 29 39 33 27 33 22 20 20 18 9 10 12 8 6 10 13 15 17 11
85 82 72 54 36 34 37 29 34 61 70 81 88 93 93 89 86 81 71 61 54 48 45 38 35 38 41 37 32 34 31 27 21 22 19 19 22 19 13 19 16 15 19 18
59 61 65 55 39 33 36 32 55 75 77 80 84 91 89 84 76 64 60 54 40 38 43 42 43 41 37 32 36 33 42 37 31 20 12 8 13 16 15 18 17 17 19 24
23 32 45 45 39 35 30 36 78 70 77 86 94 92 80 67 58 61 53 41 37 42 37 37 44 40 33 29 29 31 30 34 37 24 22 14 16 20 19 17 19 21 22 27
18 35 24 19 17 20 50 56 66 76 81 79 75 70 71 57 66 54 39 31 44 42 34 30 29 25 19 23 32 28 24 32 33 25 24 21 19 20 22 24 27 27 29 32
16 16 21 33 41 50 58 69 74 78 81 79 59 51 70 61 56 54 48 33 40 36 32 28 25 23 26 26 30 29 34 30 29 23 25 23 25 27 30 33 34 30 30 32
39 48 56 58 59 62 64 64 70 57 35 44 50 55 53 56 57 47 30 32 34 24 28 24 25 20 19 24 32 31 36 33 34 33 34 32 30 33 37 31 33 37 41 45
57 60 61 63 66 69 35 34 32 33 37 38 45 46 41 39 40 41 30 22 32 23 22 26 20 20 24 23 22 26 31 36 38 38 44 39 34 30 33 38 37 37 37 33
35 33 28 26 37 37 37 45 47 38 42 44 40 39 38 38 33 32 27 24 25 24 23 25 23 21 25 26 29 31 33 34 34 45 39 32 33 37 43 44 43 43 44 38
31 38 40 37 37 42 44 34 36 41 42 41 39 37 34 35 29 30 29 24 21 23 22 30 31 26 27 21 21 23 27 28 31 35 34 36 38 40 40 41 37 35 39 42
Wind_Direction_850mb
212 236 263 227 212 233 196 208 174 250 217 239 231 217 216 211 209 202 195 191 197 198 197 197 194 197 193 188 193 200 206 205 205 198 203 217 269 320 342 338 333 327 326 332
261 257 256 264 254 222 233 245 242 238 256 247 269 275 220 228 181 171 182 184 187 190 187 188 192 193 189 191 190 202 208 204 191 198 227 269 316 325 320 322 326 325 327 334
255 260 295 280 219 236 250 227 201 249 240 209 225 170 219 166 170 166 169 171 176 177 176 175 178 184 187 187 190 177 180 187 202 202 218 210 275 310 321 332 343 344 345 342
232 214 256 252 207 216 238 257 222 240 216 209 205 219 208 192 169 159 164 165 166 163 162 166 172 179 183 179 168 172 175 174 174 185 201 209 306 320 331 331 342 350 4 0
187 215 264 303 183 123 289 280 223 233 231 197 150 108 111 168 181 169 166 162 159 163 163 162 163 163 163 160 166 170 171 173 177 193 209 329 325 327 328 10 17 17 8 355
141 207 250 162 225 249 193 269 247 229 208 181 156 138 211 169 167 163 164 162 160 161 158 155 157 162 163 167 170 172 175 176 175 185 289 321 333 63 63 30 352 343 342 339
223 250 256 228 199 207 205 256 333 297 193 182 210 213 184 171 167 169 167 163 161 160 160 161 165 167 166 171 177 174 169 163 172 288 328 344 120 90 49 10 36 28 358 336
194 234 299 182 102 211 124 354 347 325 341 280 233 196 172 174 170 167 162 160 162 157 152 156 162 166 161 166 166 166 162 169 195 0 23 137 115 94 76 78 67 50 37 22
187 216 273 27 51 338 28 10 359 321 305 231 207 184 179 172 171 167 162 160 160 157 155 158 169 183 169 170 175 184 183 203 199 149 128 150 128 127 78 48 52 44 35 35
125 224 331 24 84 66 49 113 123 304 239 180 168 160 159 163 163 163 163 162 164 164 166 170 180 178 189 180 186 192 195 198 174 152 144 153 152 133 63 9 356 9 23 28
262 289 4 27 1 347 7 339 205 265 217 182 173 166 156 161 167 168 169 169 175 178 175 171 175 181 191 196 197 211 215 187 174 164 150 161 160 138 7 346 354 349 353 29
233 199 281 279 294 279 247 294 282 273 231 189 197 183 172 190 194 177 173 175 174 176 173 171 177 182 187 194 195 190 182 185 177 173 167 161 185 243 310 269 311 322 316 8
257 274 273 291 277 248 256 241 264 261 225 211 189 192 190 178 168 177 177 183 180 177 173 172 177 181 183 187 192 191 178 180 181 182 197 176 194 193 94 14 345 327 291 272
261 266 280 276 250 255 257 251 263 235 221 220 211 196 195 181 178 196 188 185 183 175 175 180 181 180 183 191 206 174 176 178 186 187 176 197 253 275 273 283 296 310 317 1
258 256 261 267 270 254 248 252 244 211 203 202 204 201 193 187 186 181 180 184 179 177 178 180 178 178 185 195 171 167 177 189 179 181 200 233 278 272 266 248 338 278 329 353
261 256 256 255 258 254 243 243 233 216 217 213 200 194 195 186 188 181 175 183 178 181 181 183 187 193 191 170 162 163 159 163 185 214 187 222 216 238 285 299 291 333 323 333
245 243 248 252 254 254 248 242 241 225 229 217 207 197 192 190 180 175 180 182 189 187 189 192 180 179 175 160 162 159 157 164 164 175 185 212 209 257 311 214 270 263 325 321
248 251 254 254 258 251 238 248 259 232 216 203 194 190 186 180 180 181 179 181 183 185 188 182 183 181 178 175 171 173 181 186 173 173 190 219 238 263 258 239 265 285 333 299
250 241 243 240 237 253 242 246 242 223 197 189 184 181 181 183 180 176 175 179 181 182 181 186 183 183 186 189 190 194 196 196 199 196 222 236 245 254 277 255 275 281 294 282
259 241 228 236 238 243 248 243 216 191 184 181 179 176 177 175 171 173 184 186 194 198 185 186 191 188 194 199 205 210 208 208 208 214 225 221 230 260 272 264 277 278 282 284
224 215 212 216 219 239 244 196 182 183 181 183 182 179 177 178 178 188 183 181 185 187 189 186 191 197 208 215 218 215 216 206 206 212 218 241 274 253 259 267 278 270 285 297
194 194 195 209 224 207 184 182 186 181 178 176 174 172 171 181 182 182 188 180 176 173 178 188 188 190 202 224 222 211 202 188 192 214 229 239 247 262 267 272 283 286 284 289
216 206 167 171 173 163 163 168 177 178 176 164 172 188 184 174 180 183 187 181 179 176 185 187 189 204 213 212 186 184 185 198 214 227 235 252 245 259 266 274 282 278 277 281
118 130 140 150 155 147 134 142 150 153 172 176 171 172 181 181 187 190 180 176 176 191 203 204 204 218 213 212 211 216 215 222 232 233 234 241 250 263 268 272 280 284 281 282
115 126 131 139 143 144 160 158 165 151 147 157 169 175 182 186 183 181 184 187 188 188 192 209 225 219 214 222 226 231 239 246 250 237 228 237 258 290 267 267 274 278 281 281
115 124 133 135 140 145 144 146 146 158 163 163 171 176 178 183 187 188 191 201 200 209 233 223 224 231 228 229 235 244 250 251 239 220 229 248 270 287 285 275 275 276 282 283
135 135 137 138 141 150 158 162 159 164 165 161 168 177 186 183 184 189 194 200 202 220 245 238 236 230 208 227 241 259 259 242 226 221 239 260 279 292 284 269 265 270 266 274